#timestamp,LO_Frequency,Hit,StdDev 
1621562415.8,286046996.2,N
1621562435.7,286046993.5,Y
1621562455.5,286046996.5,P
1621562475.4,286046997.8,P
1621562495.2,286046997.5,P
1621562515.0,286046997.3,Y
1621562515.9,286046997.3,P
1621562535.8,286047000.5,P
1621562555.6,286047002.5,N
1621562575.4,286047003.5,N
1621562595.3,286047003.1,N
1621562615.1,286047005.8,N
1621562635.9,286047005.5,N
1621562655.7,286047007.6,N
1621562675.5,286047004.5,N
1621562695.4,286047003.2,N
1621562715.2,286047007.4,N
1621562735.1,286047007.6,N
1621562736.0,286047007.6,N
1621562755.8,286047006.7,N
1621562775.6,286047005.8,N
1621562795.5,286047001.5,N
1621562815.3,286047001.6,N
1621562835.1,286047004.2,N
1621562855.9,286047006.0,N
1621562875.7,286047002.9,N
1621562895.6,286047003.0,N
1621562915.4,286047004.2,N
1621562935.3,286047002.2,N
1621562955.1,286047001.7,N
1621562956.0,286047001.7,N
1621562975.8,286047001.5,N
1621562995.7,286047001.3,N
1621563015.5,286047003.7,N
1621563035.3,286047002.4,N
1621563055.2,286047002.3,N
1621563075.0,286047002.4,N
1621563075.9,286047002.4,N
1621563095.8,286047003.5,N
1621563115.6,286047003.3,N
1621563135.4,286047004.2,N
1621563155.3,286047004.3,N
1621563175.1,286047002.5,N
1621563195.9,286047000.8,N
1621563215.7,286047000.8,N
1621563235.5,286046998.8,N
1621563255.4,286047000.1,N
1621563275.2,286047003.9,N
1621563295.0,286047004.2,N
1621563295.9,286047004.2,N
1621563315.8,286047004.3,N
1621563335.6,286047011.9,Y
1621563355.5,286047003.6,P
1621563375.3,286047001.9,P
1621563395.1,286046999.7,N
1621563415.9,286047003.1,N
1621563435.7,286047003.2,N
1621563455.6,286047001.3,N
1621563475.4,286047002.4,N
1621563495.2,286047001.6,N
1621563515.1,286047000.3,N
1621563516.0,286047000.3,N
1621563535.8,286047001.1,N
1621563555.7,286046999.6,N
1621563575.5,286046996.9,N
1621563595.3,286047002.8,N
1621563615.2,286047002.6,N
1621563635.0,286047004.0,N
1621563635.9,286047004.0,N
1621563655.7,286047000.1,N
1621563675.6,286047001.0,N
1621563695.4,286046998.4,N
1621563715.3,286046999.6,N
1621563735.1,286047000.1,N
1621563755.8,286047002.0,N
1621563775.7,286047003.6,N
1621563795.5,286047003.4,N
1621563815.4,286047006.0,Y
1621563835.2,286047000.3,P
1621563855.0,286046998.4,N
1621563855.9,286046998.4,N
1621563875.8,286046999.5,N
1621563895.6,286046998.3,N
1621563915.5,286046997.1,N
1621563935.3,286046997.6,N
1621563955.1,286046998.5,N
1621563975.9,286046999.9,N
1621563995.7,286047002.4,N
1621564015.6,286047001.0,N
1621564035.4,286046998.1,N
1621564055.2,286046997.4,N
1621564075.1,286046997.9,N
1621564076.0,286046997.9,N
1621564095.8,286046997.6,N
1621564115.7,286046995.7,N
1621564135.5,286046996.3,N
1621564155.3,286046995.9,N
1621564175.2,286046997.5,N
1621564195.0,286046996.6,N
1621564195.9,286046996.6,N
1621564215.7,286046997.0,N
1621564235.6,286046998.6,N
1621564255.4,286046999.0,N
1621564275.3,286046998.9,N
1621564295.1,286047000.3,N
1621564315.8,286046999.0,N
1621564335.7,286046998.8,N
1621564355.5,286046996.8,N
1621564375.4,286046999.6,N
1621564395.2,286046997.0,N
1621564415.0,286046998.7,N
1621564415.9,286046998.7,N
1621564435.8,286046999.1,N
1621564455.6,286046995.2,Y
1621564475.4,286046998.9,P
1621564495.3,286047002.1,P
1621564515.1,286047000.0,N
1621564535.9,286046998.7,N
1621564555.7,286046997.5,N
1621564575.5,286046996.1,N
1621564595.4,286046995.0,N
1621564615.2,286046995.6,N
1621564635.0,286046996.6,N
1621564635.9,286046996.6,N
1621564655.8,286046997.3,N
1621564675.6,286046995.3,N
1621564695.5,286046999.6,N
1621564715.3,286046999.5,N
1621564735.1,286046997.0,N
1621564755.9,286047001.1,N
1621564775.7,286046998.1,N
1621564795.5,286046999.8,N
1621564815.4,286047002.0,N
1621564835.2,286047003.9,N
1621564855.1,286047005.6,N
1621564856.0,286047005.6,N
1621564875.8,286047005.2,N
1621564895.6,286047004.3,N
1621564915.5,286047002.2,N
1621564935.3,286046998.2,N
1621564955.1,286046996.9,N
1621564975.9,286046999.2,N
1621564995.7,286047000.4,N
1621565015.6,286047001.0,N
1621565035.4,286047000.5,N
1621565055.2,286046999.8,N
1621565075.1,286047000.2,N
1621565076.0,286047000.2,N
1621565095.8,286047000.0,N
1621565115.7,286046998.4,N
1621565135.5,286047000.5,N
1621565155.3,286047000.8,N
1621565175.2,286046998.7,N
1621565195.0,286046999.0,N
1621565195.9,286046999.0,N
1621565215.8,286046997.2,N
1621565235.6,286046997.0,N
1621565255.4,286046998.3,N
1621565275.3,286046997.2,N
1621565295.1,286046995.2,N
1621565315.8,286046993.3,N
1621565335.7,286046995.9,N
1621565355.5,286046996.4,N
1621565375.4,286046996.4,N
1621565395.2,286046997.2,N
1621565415.0,286046996.7,N
1621565415.9,286046996.7,N
1621565435.8,286046997.3,N
1621565455.6,286047000.9,N
1621565475.5,286047003.7,N
1621565495.3,286047002.5,N
1621565515.1,286047001.8,N
1621565535.9,286047005.8,N
1621565555.7,286047007.0,N
1621565575.5,286047007.6,N
1621565595.4,286047003.0,N
1621565615.2,286047001.5,N
1621565635.1,286047001.2,N
1621565636.0,286047001.2,N
1621565655.8,286046998.4,N
1621565675.7,286047000.9,N
1621565695.5,286047000.4,N
1621565715.3,286046998.5,N
1621565735.2,286046996.7,N
1621565755.9,286046998.8,N
1621565775.7,286046998.7,N
1621565795.6,286046996.6,N
1621565815.4,286046999.0,N
1621565835.2,286046998.1,N
1621565855.1,286046998.4,N
1621565856.0,286046998.4,N
1621565875.8,286046998.8,N
1621565895.7,286046997.3,N
1621565915.5,286046998.3,N
1621565935.4,286046996.5,N
1621565955.2,286046998.8,N
1621565975.0,286046999.4,N
1621565975.9,286046999.4,N
1621565995.8,286046997.3,N
